TimeCST,TemperatureF,Dew PointF,Humidity,Sea Level PressureIn,VisibilityMPH,Wind Direction,Wind SpeedMPH,Gust SpeedMPH,PrecipitationIn,Events,Conditions,WindDirDegrees,DateUTC
12:15 AM,19.4,19.4,100,30.06,5.0,ENE,5.8,-,N/A,,Clear,70,2012-12-14 06:15:00
12:35 AM,21.2,19.4,93,30.06,5.0,East,5.8,-,N/A,,Clear,100,2012-12-14 06:35:00
12:55 AM,21.2,19.4,93,30.05,5.0,East,8.1,-,N/A,,Clear,100,2012-12-14 06:55:00
1:15 AM,19.4,19.4,100,30.05,5.0,East,5.8,-,N/A,,Clear,100,2012-12-14 07:15:00
1:35 AM,21.2,19.4,93,30.05,5.0,East,8.1,-,N/A,,Clear,90,2012-12-14 07:35:00
1:55 AM,21.2,19.4,93,30.05,5.0,ESE,8.1,-,N/A,,Clear,110,2012-12-14 07:55:00
2:15 AM,21.2,19.4,93,30.05,5.0,East,8.1,-,N/A,,Partly Cloudy,90,2012-12-14 08:15:00
2:35 AM,21.2,19.4,93,30.04,5.0,East,6.9,-,N/A,,Clear,80,2012-12-14 08:35:00
2:55 AM,21.2,19.4,93,30.04,5.0,East,8.1,-,N/A,,Scattered Clouds,100,2012-12-14 08:55:00
3:15 AM,21.2,19.4,93,30.04,5.0,East,9.2,-,N/A,,Partly Cloudy,100,2012-12-14 09:15:00
3:35 AM,21.2,19.4,93,30.04,5.0,East,6.9,-,N/A,,Clear,100,2012-12-14 09:35:00
3:55 AM,21.2,19.4,93,30.04,5.0,ESE,9.2,-,N/A,,Clear,110,2012-12-14 09:55:00
4:15 AM,21.2,19.4,93,30.02,5.0,ESE,5.8,-,N/A,,Clear,110,2012-12-14 10:15:00
4:55 AM,19.4,19.4,100,30.01,5.0,East,4.6,-,N/A,,Clear,100,2012-12-14 10:55:00
5:15 AM,21.2,19.4,93,30.00,5.0,ESE,8.1,-,N/A,,Clear,110,2012-12-14 11:15:00
5:35 AM,21.2,19.4,93,30.00,6.0,ESE,6.9,-,N/A,,Clear,110,2012-12-14 11:35:00
5:55 AM,21.2,19.4,93,29.99,6.0,ESE,8.1,-,N/A,,Clear,110,2012-12-14 11:55:00
6:15 AM,21.2,19.4,93,29.99,6.0,ESE,5.8,-,N/A,,Clear,110,2012-12-14 12:15:00
6:35 AM,21.2,19.4,93,29.99,7.0,ESE,10.4,-,N/A,,Clear,120,2012-12-14 12:35:00
6:55 AM,21.2,19.4,93,29.98,6.0,ESE,9.2,-,N/A,,Clear,120,2012-12-14 12:55:00
7:15 AM,21.2,19.4,93,29.97,6.0,East,11.5,-,N/A,,Clear,100,2012-12-14 13:15:00
7:35 AM,21.2,21.2,100,29.97,6.0,ESE,10.4,-,N/A,,Clear,110,2012-12-14 13:35:00
7:55 AM,23.0,21.2,93,29.96,5.0,ESE,11.5,-,N/A,,Clear,110,2012-12-14 13:55:00
8:15 AM,23.0,21.2,93,29.96,5.0,ESE,11.5,-,N/A,,Clear,110,2012-12-14 14:15:00
8:35 AM,23.0,21.2,93,29.95,6.0,ESE,10.4,-,N/A,,Clear,110,2012-12-14 14:35:00
8:55 AM,24.8,23.0,93,29.96,6.0,East,9.2,-,N/A,,Clear,100,2012-12-14 14:55:00
9:15 AM,28.4,24.8,86,29.95,7.0,ESE,11.5,-,N/A,,Clear,120,2012-12-14 15:15:00
9:35 AM,30.2,24.8,80,29.95,8.0,SE,9.2,-,N/A,,Clear,130,2012-12-14 15:35:00
9:55 AM,32.0,26.6,80,29.95,8.0,SE,8.1,-,N/A,,Clear,140,2012-12-14 15:55:00
10:15 AM,35.6,26.6,70,29.95,9.0,SSE,13.8,-,N/A,,Clear,150,2012-12-14 16:15:00
10:35 AM,37.4,24.8,60,29.94,9.0,SSE,12.7,18.4,N/A,,Clear,150,2012-12-14 16:35:00
10:55 AM,37.4,26.6,65,29.92,9.0,SE,11.5,-,N/A,,Clear,130,2012-12-14 16:55:00
11:15 AM,41.0,26.6,57,29.90,10.0,ESE,9.2,-,N/A,,Clear,120,2012-12-14 17:15:00
11:35 AM,42.8,26.6,53,29.89,10.0,SE,13.8,-,N/A,,Clear,130,2012-12-14 17:35:00
11:55 AM,44.6,26.6,49,29.87,10.0,SE,12.7,-,N/A,,Clear,140,2012-12-14 17:55:00
12:15 PM,44.6,26.6,49,29.85,10.0,SE,13.8,-,N/A,,Clear,140,2012-12-14 18:15:00
12:35 PM,46.4,28.4,50,29.84,10.0,SE,15.0,-,N/A,,Clear,130,2012-12-14 18:35:00
12:55 PM,46.4,26.6,46,29.82,10.0,SE,16.1,-,N/A,,Clear,140,2012-12-14 18:55:00
1:15 PM,44.6,28.4,53,29.81,10.0,SE,12.7,-,N/A,,Clear,130,2012-12-14 19:15:00
1:35 PM,44.6,28.4,53,29.80,10.0,SE,13.8,-,N/A,,Clear,130,2012-12-14 19:35:00
1:55 PM,46.4,28.4,50,29.79,10.0,SE,13.8,-,N/A,,Clear,140,2012-12-14 19:55:00
2:15 PM,48.2,28.4,46,29.78,10.0,SSE,17.3,-,N/A,,Clear,150,2012-12-14 20:15:00
2:35 PM,50.0,30.2,47,29.77,10.0,SE,16.1,-,N/A,,Clear,140,2012-12-14 20:35:00
2:55 PM,48.2,28.4,46,29.76,10.0,SSE,19.6,-,N/A,,Clear,150,2012-12-14 20:55:00
3:15 PM,48.2,30.2,50,29.76,10.0,SE,13.8,20.7,N/A,,Clear,140,2012-12-14 21:15:00
3:35 PM,48.2,30.2,50,29.75,10.0,SE,11.5,17.3,N/A,,Clear,130,2012-12-14 21:35:00
3:55 PM,46.4,28.4,50,29.75,10.0,SE,12.7,-,N/A,,Clear,130,2012-12-14 21:55:00
4:15 PM,46.4,28.4,50,29.75,10.0,SE,12.7,-,N/A,,Clear,130,2012-12-14 22:15:00
4:35 PM,44.6,30.2,57,29.75,10.0,SE,16.1,-,N/A,,Clear,140,2012-12-14 22:35:00
4:55 PM,46.4,30.2,53,29.74,10.0,SSE,15.0,-,N/A,,Clear,150,2012-12-14 22:55:00
5:15 PM,46.4,30.2,53,29.74,10.0,SE,13.8,-,N/A,,Clear,140,2012-12-14 23:15:00
5:35 PM,44.6,30.2,57,29.74,10.0,SE,12.7,-,N/A,,Clear,140,2012-12-14 23:35:00
6:15 PM,42.8,30.2,61,29.73,10.0,SE,15.0,-,N/A,,Clear,130,2012-12-15 00:15:00
6:35 PM,42.8,30.2,61,29.72,10.0,SE,15.0,-,N/A,,Clear,130,2012-12-15 00:35:00
6:55 PM,42.8,30.2,61,29.72,10.0,SE,15.0,-,N/A,,Clear,130,2012-12-15 00:55:00
7:15 PM,42.8,30.2,61,29.72,10.0,SE,12.7,18.4,N/A,,Clear,130,2012-12-15 01:15:00
7:55 PM,42.8,32.0,66,29.71,10.0,SE,16.1,-,N/A,,Clear,140,2012-12-15 01:55:00
8:15 PM,44.6,32.0,61,29.71,10.0,SSE,17.3,-,N/A,,Scattered Clouds,150,2012-12-15 02:15:00
8:35 PM,44.6,33.8,66,29.71,10.0,SE,15.0,21.9,N/A,,Mostly Cloudy,140,2012-12-15 02:35:00
8:55 PM,44.6,33.8,66,29.70,10.0,SE,12.7,-,N/A,,Overcast,140,2012-12-15 02:55:00
9:15 PM,46.4,33.8,62,29.69,10.0,SE,12.7,-,N/A,,Overcast,140,2012-12-15 03:15:00
9:35 PM,46.4,33.8,62,29.69,10.0,SE,11.5,-,N/A,,Overcast,140,2012-12-15 03:35:00
9:55 PM,46.4,33.8,62,29.67,10.0,SSE,12.7,-,N/A,,Overcast,150,2012-12-15 03:55:00
10:15 PM,46.4,33.8,62,29.67,10.0,SSE,12.7,-,N/A,,Overcast,150,2012-12-15 04:15:00
10:35 PM,44.6,33.8,66,29.65,10.0,SSE,13.8,-,N/A,,Mostly Cloudy,150,2012-12-15 04:35:00
10:55 PM,44.6,33.8,66,29.65,10.0,SSE,12.7,-,N/A,,Mostly Cloudy,150,2012-12-15 04:55:00
11:15 PM,44.6,33.8,66,29.64,10.0,SE,13.8,-,N/A,,Mostly Cloudy,140,2012-12-15 05:15:00
11:35 PM,44.6,33.8,66,29.62,10.0,SE,11.5,-,N/A,,Overcast,130,2012-12-15 05:35:00
11:55 PM,42.8,33.8,70,29.61,10.0,SE,11.5,-,N/A,,Overcast,130,2012-12-15 05:55:00